2023/07/29 00:00:00,10.5,23.0
2023/07/29 00:10:00, 9.9,22.7
2023/07/29 00:20:00, 4.4,22.9
2023/07/29 00:30:00, 1.3,22.8
2023/07/29 00:40:00, 0.4,22.8
2023/07/29 00:50:00, 0.2,22.8
2023/07/29 01:00:00, 0.2,22.7
2023/07/29 01:10:00, 0.2,22.9
2023/07/29 01:20:00, 0.5,22.9
2023/07/29 01:30:00, 9.9,22.9
2023/07/29 01:40:00,21.5,22.9
2023/07/29 01:50:00, 0.7,22.9
2023/07/29 02:00:00, 4.2,22.8
2023/07/29 02:10:00, 0.3,22.8
2023/07/29 02:20:00, 0.5,22.6
2023/07/29 02:30:00, 1.2,22.6
2023/07/29 02:40:00, 5.2,22.5
2023/07/29 02:50:00, 5.7,22.6
2023/07/29 03:00:00, 2.9,22.6
2023/07/29 03:10:00, 0.6,22.7
2023/07/29 03:20:00, 0.3,22.4
2023/07/29 03:30:00, 0.3,22.6
2023/07/29 03:40:00, 0.3,22.4
2023/07/29 03:50:00, 0.2,22.4
2023/07/29 04:00:00, 0.3,22.3
2023/07/29 04:10:00,11.1,22.4
2023/07/29 04:20:00, 0.2,22.3
2023/07/29 04:30:00, 0.2,22.2
2023/07/29 04:40:00, 0.2,22.1
2023/07/29 04:50:00, 0.2,22.2
2023/07/29 05:00:00,19.9,22.4
2023/07/29 05:10:00, 7.5,22.4
2023/07/29 05:20:00, 0.3,22.2
2023/07/29 05:30:00, 0.3,22.4
2023/07/29 05:40:00, 0.3,22.4
2023/07/29 05:50:00,---,22.2
2023/07/29 06:00:00,21.5,23.1
2023/07/29 06:10:00,16.6,23.7
2023/07/29 06:20:00, 0.2,24.1
2023/07/29 06:30:00, 0.2,24.4
2023/07/29 06:40:00, 0.2,25.0
2023/07/29 06:50:00, 0.2,25.4
2023/07/29 07:00:00, 0.2,25.9
2023/07/29 07:10:00, 0.2,26.2
2023/07/29 07:20:00, 0.1,26.5
2023/07/29 07:30:00, 0.1,27.6
2023/07/29 07:40:00, 0.2,28.2
2023/07/29 07:50:00, 0.2,28.9
2023/07/29 08:00:00, 0.3,29.3
2023/07/29 08:10:00, 0.5,30.0
2023/07/29 08:20:00, 0.4,30.4
2023/07/29 08:30:00, 0.4,31.0
2023/07/29 08:40:00, 0.4,31.3
2023/07/29 08:50:00, 0.4,31.6
2023/07/29 09:00:00, 0.4,31.8
2023/07/29 09:10:00, 0.4,32.2
2023/07/29 09:20:00, 0.4,33.0
2023/07/29 09:30:00, 0.4,33.4
2023/07/29 09:40:00, 0.4,33.5
2023/07/29 09:50:00, 0.3,33.8
2023/07/29 10:00:00, 0.3,34.4
2023/07/29 10:10:00, 0.3,34.2
2023/07/29 10:20:00, 0.5,34.5
2023/07/29 10:30:00, 1.1,34.8
2023/07/29 10:40:00, 2.3,34.8
2023/07/29 10:50:00, 2.8,35.3
2023/07/29 11:00:00, 3.6,35.8
2023/07/29 11:10:00, 3.3,35.7
2023/07/29 11:20:00, 3.1,36.0
2023/07/29 11:30:00, 2.4,34.7
2023/07/29 11:40:00, 2.2,35.2
2023/07/29 11:50:00, 2.4,35.6
2023/07/29 12:00:00, 2.6,35.5
2023/07/29 12:10:00, 1.8,35.4
2023/07/29 12:20:00, 1.8,36.1
2023/07/29 12:30:00, 1.2,36.4
2023/07/29 12:40:00, 1.2,36.8
2023/07/29 12:50:00, 0.9,37.0
2023/07/29 13:00:00, 0.6,37.2
2023/07/29 13:10:00, 0.6,36.5
2023/07/29 13:20:00, 0.6,36.4
2023/07/29 13:30:00, 0.6,36.3
2023/07/29 13:40:00, 0.5,35.8
2023/07/29 13:50:00, 0.5,35.7
2023/07/29 14:00:00, 0.7,36.0
2023/07/29 14:10:00, 0.9,36.4
2023/07/29 14:20:00, 1.0,36.0
2023/07/29 14:30:00, 1.2,35.9
2023/07/29 14:40:00, 1.5,35.8
2023/07/29 14:50:00, 1.8,35.7
2023/07/29 15:00:00, 2.3,35.6
2023/07/29 15:10:00, 3.0,35.6
2023/07/29 15:20:00, 0.6,35.3
2023/07/29 15:30:00, 0.4,35.6
2023/07/29 15:40:00, 0.5,35.6
2023/07/29 15:50:00, 0.5,34.7
2023/07/29 16:00:00, 0.4,34.1
2023/07/29 16:10:00, 0.4,32.9
2023/07/29 16:20:00, 0.4,33.2
2023/07/29 16:30:00, 0.4,34.3
2023/07/29 16:40:00, 0.5,34.5
2023/07/29 16:50:00, 0.5,34.3
2023/07/29 17:00:00, 0.5,33.8
2023/07/29 17:10:00, 0.5,33.8
2023/07/29 17:20:00, 0.5,32.3
2023/07/29 17:30:00, 0.4,31.8
2023/07/29 17:40:00, 0.4,32.1
2023/07/29 17:50:00, 0.4,30.6
2023/07/29 18:00:00, 0.4,30.7
2023/07/29 18:10:00, 0.4,30.7
2023/07/29 18:20:00, 0.4,30.1
2023/07/29 18:30:00, 0.4,29.6
2023/07/29 18:40:00, 0.4,29.0
2023/07/29 18:50:00, 0.1,28.4
2023/07/29 19:00:00, 0.1,28.1
2023/07/29 19:10:00, 0.1,27.8
2023/07/29 19:20:00, 0.1,27.4
2023/07/29 19:30:00, 0.1,26.8
2023/07/29 19:40:00, 0.1,26.3
2023/07/29 19:50:00, 0.1,26.3
2023/07/29 20:00:00, 0.1,26.1
2023/07/29 20:10:00, 0.1,25.5
2023/07/29 20:20:00, 0.1,25.1
2023/07/29 20:30:00, 0.1,24.6
2023/07/29 20:40:00, 0.1,24.6
2023/07/29 20:50:00, 0.1,24.5
2023/07/29 21:00:00, 0.1,24.2
2023/07/29 21:10:00, 0.1,24.0
2023/07/29 21:20:00, 0.1,23.9
2023/07/29 21:30:00, 0.1,23.5
2023/07/29 21:40:00, 0.1,23.4
2023/07/29 21:50:00, 0.1,23.2
2023/07/29 22:00:00, 0.1,22.9
2023/07/29 22:10:00, 0.1,22.9
2023/07/29 22:20:00, 0.1,22.3
2023/07/29 22:30:00, 0.1,22.9
2023/07/29 22:40:00, 0.2,22.8
2023/07/29 22:50:00, 0.2,22.8
2023/07/29 23:00:00, 0.2,22.3
2023/07/29 23:10:00, 0.4,22.1
2023/07/29 23:20:00, 0.6,22.2
2023/07/29 23:30:00, 2.0,22.0
2023/07/29 23:40:00, 3.3,22.1
2023/07/29 23:50:00, 2.8,21.9
